Year,Month,Day,Hour,Minute,Value (Times are PST for temperature in C)
2007,08,14,00,00,15.30
2007,08,14,00,01,15.30
2007,08,14,00,02,15.30
2007,08,14,00,03,15.20
2007,08,14,00,04,15.20
2007,08,14,00,05,15.20
2007,08,14,00,06,15.20
2007,08,14,00,07,15.20
2007,08,14,00,08,15.10
2007,08,14,00,09,15.10
2007,08,14,00,10,15.10
2007,08,14,00,11,15.10
2007,08,14,00,12,15.10
2007,08,14,00,13,15.00
2007,08,14,00,14,15.00
2007,08,14,00,15,15.00
2007,08,14,00,16,15.00
2007,08,14,00,17,15.00
2007,08,14,00,18,15.00
2007,08,14,00,19,15.00
2007,08,14,00,20,15.00
2007,08,14,00,21,15.00
2007,08,14,00,22,15.00
2007,08,14,00,23,15.00
2007,08,14,00,24,15.00
2007,08,14,00,25,15.00
2007,08,14,00,26,15.00
2007,08,14,00,27,15.00
2007,08,14,00,28,15.00
2007,08,14,00,29,15.00
2007,08,14,00,30,15.00
2007,08,14,00,31,15.00
2007,08,14,00,32,15.00
2007,08,14,00,33,15.00
2007,08,14,00,34,15.00
2007,08,14,00,35,14.90
2007,08,14,00,36,14.90
2007,08,14,00,37,14.90
2007,08,14,00,38,14.90
2007,08,14,00,39,14.90
2007,08,14,00,40,14.90
2007,08,14,00,41,14.80
2007,08,14,00,42,14.80
2007,08,14,00,43,14.80
2007,08,14,00,44,14.80
2007,08,14,00,45,14.80
2007,08,14,00,46,14.80
2007,08,14,00,47,14.80
2007,08,14,00,48,14.70
2007,08,14,00,49,14.70
2007,08,14,00,50,14.70
2007,08,14,00,51,14.60
2007,08,14,00,52,14.60
2007,08,14,00,53,14.60
2007,08,14,00,54,14.50
2007,08,14,00,55,14.50
2007,08,14,00,56,14.50
2007,08,14,00,57,14.50
2007,08,14,00,58,14.50
2007,08,14,00,59,14.40
2007,08,14,01,00,14.30
2007,08,14,01,01,14.20
2007,08,14,01,02,14.20
2007,08,14,01,03,14.20
2007,08,14,01,04,14.20
2007,08,14,01,05,14.20
2007,08,14,01,06,14.10
2007,08,14,01,07,14.10
2007,08,14,01,08,14.10
2007,08,14,01,09,14.00
2007,08,14,01,10,14.00
2007,08,14,01,11,14.00
2007,08,14,01,12,14.00
2007,08,14,01,13,14.00
2007,08,14,01,14,14.00
2007,08,14,01,15,14.00
2007,08,14,01,16,13.90
2007,08,14,01,17,13.90
2007,08,14,01,18,13.90
2007,08,14,01,19,13.90
2007,08,14,01,20,13.90
2007,08,14,01,21,13.90
2007,08,14,01,22,13.90
2007,08,14,01,23,13.80
2007,08,14,01,24,13.80
2007,08,14,01,25,13.80
2007,08,14,01,26,13.80
2007,08,14,01,27,13.80
2007,08,14,01,28,13.80
2007,08,14,01,29,13.80
2007,08,14,01,30,13.80
2007,08,14,01,31,13.70
2007,08,14,01,32,13.70
2007,08,14,01,33,13.70
2007,08,14,01,34,13.70
2007,08,14,01,35,13.70
2007,08,14,01,36,13.70
2007,08,14,01,37,13.70
2007,08,14,01,38,13.70
2007,08,14,01,39,13.70
2007,08,14,01,40,13.70
2007,08,14,01,41,13.70
2007,08,14,01,42,13.70
2007,08,14,01,43,13.60
2007,08,14,01,44,13.60
2007,08,14,01,45,13.60
2007,08,14,01,46,13.60
2007,08,14,01,47,13.60
2007,08,14,01,48,13.60
2007,08,14,01,49,13.60
2007,08,14,01,50,13.50
2007,08,14,01,51,13.50
2007,08,14,01,52,13.50
2007,08,14,01,53,13.50
2007,08,14,01,54,13.50
2007,08,14,01,55,13.50
2007,08,14,01,56,13.50
2007,08,14,01,57,13.50
2007,08,14,01,58,13.50
2007,08,14,01,59,13.50
2007,08,14,02,00,13.50
2007,08,14,02,01,13.50
2007,08,14,02,02,13.50
2007,08,14,02,03,13.50
2007,08,14,02,04,13.50
2007,08,14,02,05,13.50
2007,08,14,02,06,13.50
2007,08,14,02,07,13.50
2007,08,14,02,08,13.50
2007,08,14,02,09,13.50
2007,08,14,02,10,13.50
2007,08,14,02,11,13.50
2007,08,14,02,12,13.40
2007,08,14,02,13,13.40
2007,08,14,02,14,13.40
2007,08,14,02,15,13.40
2007,08,14,02,16,13.40
2007,08,14,02,17,13.40
2007,08,14,02,18,13.30
2007,08,14,02,19,13.30
2007,08,14,02,20,13.30
2007,08,14,02,21,13.30
2007,08,14,02,22,13.30
2007,08,14,02,23,13.20
2007,08,14,02,24,13.20
2007,08,14,02,25,13.20
2007,08,14,02,26,13.20
2007,08,14,02,27,13.20
2007,08,14,02,28,13.10
2007,08,14,02,29,13.10
2007,08,14,02,30,13.10
2007,08,14,02,31,13.10
2007,08,14,02,32,13.10
2007,08,14,02,33,13.10
2007,08,14,02,34,13.00
2007,08,14,02,35,13.00
2007,08,14,02,36,13.00
2007,08,14,02,37,13.00
2007,08,14,02,38,13.00
2007,08,14,02,39,13.00
2007,08,14,02,40,13.00
2007,08,14,02,41,13.00
2007,08,14,02,42,13.00
2007,08,14,02,43,13.00
2007,08,14,02,44,12.90
2007,08,14,02,45,12.90
2007,08,14,02,46,12.90
2007,08,14,02,47,12.90
2007,08,14,02,48,12.90
2007,08,14,02,49,12.90
2007,08,14,02,50,12.90
2007,08,14,02,51,12.80
2007,08,14,02,52,12.80
2007,08,14,02,53,12.80
2007,08,14,02,54,12.80
2007,08,14,02,55,12.80
2007,08,14,02,56,12.80
2007,08,14,02,57,12.80
2007,08,14,02,58,12.80
2007,08,14,02,59,12.80
2007,08,14,03,00,12.80
2007,08,14,03,01,12.80
2007,08,14,03,02,12.80
2007,08,14,03,03,12.90
2007,08,14,03,04,12.90
2007,08,14,03,05,12.90
2007,08,14,03,06,12.90
2007,08,14,03,07,12.90
2007,08,14,03,08,12.90
2007,08,14,03,09,12.90
2007,08,14,03,10,12.90
2007,08,14,03,11,12.90
2007,08,14,03,12,12.90
2007,08,14,03,13,12.90
2007,08,14,03,14,12.90
2007,08,14,03,15,12.90
2007,08,14,03,16,12.90
2007,08,14,03,17,12.90
2007,08,14,03,18,12.90
2007,08,14,03,19,12.90
2007,08,14,03,20,12.90
2007,08,14,03,21,12.90
2007,08,14,03,22,12.80
2007,08,14,03,23,12.80
2007,08,14,03,24,12.80
2007,08,14,03,25,12.80
2007,08,14,03,26,12.80
2007,08,14,03,27,12.80
2007,08,14,03,28,12.80
2007,08,14,03,29,12.80
2007,08,14,03,30,12.80
2007,08,14,03,31,12.80
2007,08,14,03,32,12.80
2007,08,14,03,33,12.80
2007,08,14,03,34,12.80
2007,08,14,03,35,12.80
2007,08,14,03,36,12.80
2007,08,14,03,37,12.80
2007,08,14,03,38,12.80
2007,08,14,03,39,12.80
2007,08,14,03,40,12.80
2007,08,14,03,41,12.80
2007,08,14,03,42,12.80
2007,08,14,03,43,12.80
2007,08,14,03,44,12.80
2007,08,14,03,45,12.80
2007,08,14,03,46,12.80
2007,08,14,03,47,12.80
2007,08,14,03,48,12.80
2007,08,14,03,49,12.80
2007,08,14,03,50,12.80
2007,08,14,03,51,12.80
2007,08,14,03,52,12.80
2007,08,14,03,53,12.80
2007,08,14,03,54,12.80
2007,08,14,03,55,12.80
2007,08,14,03,56,12.80
2007,08,14,03,57,12.80
2007,08,14,03,58,12.90
2007,08,14,03,59,12.90
2007,08,14,04,00,12.90
2007,08,14,04,01,12.90
2007,08,14,04,02,13.00
2007,08,14,04,03,13.00
2007,08,14,04,04,13.00
2007,08,14,04,05,13.00
2007,08,14,04,06,13.00
2007,08,14,04,07,13.10
2007,08,14,04,08,13.10
2007,08,14,04,09,13.10
2007,08,14,04,10,13.10
2007,08,14,04,11,13.10
2007,08,14,04,12,13.10
2007,08,14,04,13,13.10
2007,08,14,04,14,13.00
2007,08,14,04,15,13.00
2007,08,14,04,16,12.90
2007,08,14,04,17,12.80
2007,08,14,04,18,12.80
2007,08,14,04,19,12.80
2007,08,14,04,20,12.70
2007,08,14,04,21,12.70
2007,08,14,04,22,12.60
2007,08,14,04,23,12.60
2007,08,14,04,24,12.60
2007,08,14,04,25,12.60
2007,08,14,04,26,12.60
2007,08,14,04,27,12.60
2007,08,14,04,28,12.60
2007,08,14,04,29,12.50
2007,08,14,04,30,12.50
2007,08,14,04,31,12.50
2007,08,14,04,32,12.50
2007,08,14,04,33,12.50
2007,08,14,04,34,12.60
2007,08,14,04,35,12.60
2007,08,14,04,36,12.70
2007,08,14,04,37,12.70
2007,08,14,04,38,12.80
2007,08,14,04,39,12.80
2007,08,14,04,40,12.80
2007,08,14,04,41,12.80
2007,08,14,04,42,12.80
2007,08,14,04,43,12.80
2007,08,14,04,44,12.80
2007,08,14,04,45,12.80
2007,08,14,04,46,12.80
2007,08,14,04,47,12.80
2007,08,14,04,48,12.80
2007,08,14,04,49,12.80
2007,08,14,04,50,12.80
2007,08,14,04,51,12.80
2007,08,14,04,52,12.80
2007,08,14,04,53,12.80
2007,08,14,04,54,12.80
2007,08,14,04,55,12.70
2007,08,14,04,56,12.70
2007,08,14,04,57,12.70
2007,08,14,04,58,12.70
2007,08,14,04,59,12.60
2007,08,14,05,00,12.60
2007,08,14,05,01,12.60
2007,08,14,05,02,12.60
2007,08,14,05,03,12.70
2007,08,14,05,04,12.70
2007,08,14,05,05,12.80
2007,08,14,05,06,12.80
2007,08,14,05,07,12.80
2007,08,14,05,08,12.80
2007,08,14,05,09,12.80
2007,08,14,05,10,12.80
2007,08,14,05,11,12.80
2007,08,14,05,12,12.80
2007,08,14,05,13,12.80
2007,08,14,05,14,12.80
2007,08,14,05,15,12.80
2007,08,14,05,16,12.80
2007,08,14,05,17,12.80
2007,08,14,05,18,12.80
2007,08,14,05,19,12.80
2007,08,14,05,20,12.80
2007,08,14,05,21,12.80
2007,08,14,05,22,12.80
2007,08,14,05,23,12.70
2007,08,14,05,24,12.70
2007,08,14,05,25,12.60
2007,08,14,05,26,12.60
2007,08,14,05,27,12.60
2007,08,14,05,28,12.50
2007,08,14,05,29,12.50
2007,08,14,05,30,12.50
2007,08,14,05,31,12.50
2007,08,14,05,32,12.40
2007,08,14,05,33,12.40
2007,08,14,05,34,12.40
2007,08,14,05,35,12.30
2007,08,14,05,36,12.30
2007,08,14,05,37,12.30
2007,08,14,05,38,12.30
2007,08,14,05,39,12.30
2007,08,14,05,40,12.30
2007,08,14,05,41,12.30
2007,08,14,05,42,12.30
2007,08,14,05,43,12.30
2007,08,14,05,44,12.30
2007,08,14,05,45,12.30
2007,08,14,05,46,12.30
2007,08,14,05,47,12.30
2007,08,14,05,48,12.30
2007,08,14,05,49,12.30
2007,08,14,05,50,12.30
2007,08,14,05,51,12.30
2007,08,14,05,52,12.30
2007,08,14,05,53,12.30
2007,08,14,05,54,12.30
2007,08,14,05,55,12.30
2007,08,14,05,56,12.30
2007,08,14,05,57,12.30
2007,08,14,05,58,12.20
2007,08,14,05,59,12.20
2007,08,14,06,00,12.20
2007,08,14,06,01,12.20
2007,08,14,06,02,12.20
2007,08,14,06,03,12.30
2007,08,14,06,04,12.30
2007,08,14,06,05,12.30
2007,08,14,06,06,12.30
2007,08,14,06,07,12.30
2007,08,14,06,08,12.30
2007,08,14,06,09,12.30
2007,08,14,06,10,12.30
2007,08,14,06,11,12.20
2007,08,14,06,12,12.20
2007,08,14,06,13,12.20
2007,08,14,06,14,12.20
2007,08,14,06,15,12.20
2007,08,14,06,16,12.20
2007,08,14,06,17,12.20
2007,08,14,06,18,12.10
2007,08,14,06,19,12.10
2007,08,14,06,20,12.10
2007,08,14,06,21,12.10
2007,08,14,06,22,12.10
2007,08,14,06,23,12.00
2007,08,14,06,24,12.00
2007,08,14,06,25,12.00
2007,08,14,06,26,12.00
2007,08,14,06,27,12.00
2007,08,14,06,28,12.00
2007,08,14,06,29,11.90
2007,08,14,06,30,11.90
2007,08,14,06,31,11.80
2007,08,14,06,32,11.80
2007,08,14,06,33,11.80
2007,08,14,06,34,11.80
2007,08,14,06,35,11.80
2007,08,14,06,36,11.80
2007,08,14,06,37,11.80
2007,08,14,06,38,11.80
2007,08,14,06,39,11.80
2007,08,14,06,40,11.80
2007,08,14,06,41,11.80
2007,08,14,06,42,11.80
2007,08,14,06,43,11.80
2007,08,14,06,44,11.80
2007,08,14,06,45,11.80
2007,08,14,06,46,11.80
2007,08,14,06,47,11.80
2007,08,14,06,48,11.80
2007,08,14,06,49,11.80
2007,08,14,06,50,11.80
2007,08,14,06,51,11.80
2007,08,14,06,52,11.80
2007,08,14,06,53,11.80
2007,08,14,06,54,11.80
2007,08,14,06,55,11.80
2007,08,14,06,56,11.80
2007,08,14,06,57,11.80
2007,08,14,06,58,11.80
2007,08,14,06,59,11.80
2007,08,14,07,00,11.80
2007,08,14,07,01,11.80
2007,08,14,07,02,11.80
2007,08,14,07,03,11.90
2007,08,14,07,04,12.00
2007,08,14,07,05,12.00
2007,08,14,07,06,12.10
2007,08,14,07,07,12.10
2007,08,14,07,08,12.20
2007,08,14,07,09,12.20
2007,08,14,07,10,12.20
2007,08,14,07,11,12.20
2007,08,14,07,12,12.30
2007,08,14,07,13,12.30
2007,08,14,07,14,12.30
2007,08,14,07,15,12.30
2007,08,14,07,16,12.30
2007,08,14,07,17,12.30
2007,08,14,07,18,12.30
2007,08,14,07,19,12.30
2007,08,14,07,20,12.30
2007,08,14,07,21,12.30
2007,08,14,07,22,12.30
2007,08,14,07,23,12.40
2007,08,14,07,24,12.40
2007,08,14,07,25,12.40
2007,08,14,07,26,12.50
2007,08,14,07,27,12.50
2007,08,14,07,28,12.50
2007,08,14,07,29,12.60
2007,08,14,07,30,12.60
2007,08,14,07,31,12.70
2007,08,14,07,32,12.70
2007,08,14,07,33,12.80
2007,08,14,07,34,12.80
2007,08,14,07,35,12.80
2007,08,14,07,36,12.80
2007,08,14,07,37,12.90
2007,08,14,07,38,12.90
2007,08,14,07,39,13.00
2007,08,14,07,40,13.00
2007,08,14,07,41,13.10
2007,08,14,07,42,13.20
2007,08,14,07,43,13.20
2007,08,14,07,44,13.30
2007,08,14,07,45,13.30
2007,08,14,07,46,13.40
2007,08,14,07,47,13.40
2007,08,14,07,48,13.50
2007,08,14,07,49,13.50
2007,08,14,07,50,13.60
2007,08,14,07,51,13.70
2007,08,14,07,52,13.70
2007,08,14,07,53,13.70
2007,08,14,07,54,13.80
2007,08,14,07,55,13.90
2007,08,14,07,56,13.90
2007,08,14,07,57,14.00
2007,08,14,07,58,14.10
2007,08,14,07,59,14.20
2007,08,14,08,00,14.20
2007,08,14,08,01,14.30
2007,08,14,08,02,14.30
2007,08,14,08,03,14.40
2007,08,14,08,04,14.50
2007,08,14,08,05,14.60
2007,08,14,08,06,14.60
2007,08,14,08,07,14.70
2007,08,14,08,08,14.80
2007,08,14,08,09,14.80
2007,08,14,08,10,14.90
2007,08,14,08,11,14.90
2007,08,14,08,12,15.00
2007,08,14,08,13,15.10
2007,08,14,08,14,15.10
2007,08,14,08,15,15.20
2007,08,14,08,16,15.30
2007,08,14,08,17,15.30
2007,08,14,08,18,15.50
2007,08,14,08,19,15.50
2007,08,14,08,20,15.60
2007,08,14,08,21,15.80
2007,08,14,08,22,15.80
2007,08,14,08,23,16.00
2007,08,14,08,24,16.10
2007,08,14,08,25,16.20
2007,08,14,08,26,16.30
2007,08,14,08,27,16.40
2007,08,14,08,28,16.60
2007,08,14,08,29,16.70
2007,08,14,08,30,16.70
2007,08,14,08,31,16.80
2007,08,14,08,32,16.90
2007,08,14,08,33,16.90
2007,08,14,08,34,17.00
2007,08,14,08,35,17.00
2007,08,14,08,36,17.10
2007,08,14,08,37,17.20
2007,08,14,08,38,17.20
2007,08,14,08,39,17.30
2007,08,14,08,40,17.30
2007,08,14,08,41,17.30
2007,08,14,08,42,17.40
2007,08,14,08,43,17.50
2007,08,14,08,44,17.50
2007,08,14,08,45,17.50
2007,08,14,08,46,17.60
2007,08,14,08,47,17.60
2007,08,14,08,48,17.70
2007,08,14,08,49,17.70
2007,08,14,08,50,17.80
2007,08,14,08,51,17.80
2007,08,14,08,52,17.90
2007,08,14,08,53,17.90
2007,08,14,08,54,17.90
2007,08,14,08,55,18.00
2007,08,14,08,56,18.10
2007,08,14,08,57,18.10
2007,08,14,08,58,18.20
2007,08,14,08,59,18.20
2007,08,14,09,00,18.20
2007,08,14,09,01,18.20
2007,08,14,09,02,18.30
2007,08,14,09,03,18.30
2007,08,14,09,04,18.40
2007,08,14,09,05,18.40
2007,08,14,09,06,18.40
2007,08,14,09,07,18.50
2007,08,14,09,08,18.50
2007,08,14,09,09,18.60
2007,08,14,09,10,18.60
2007,08,14,09,11,18.70
2007,08,14,09,12,18.70
2007,08,14,09,13,18.70
2007,08,14,09,14,18.70
2007,08,14,09,15,18.80
2007,08,14,09,16,18.90
2007,08,14,09,17,18.90
2007,08,14,09,18,18.90
2007,08,14,09,19,18.90
2007,08,14,09,20,18.90
2007,08,14,09,21,19.00
2007,08,14,09,22,19.10
2007,08,14,09,23,19.10
2007,08,14,09,24,19.10
2007,08,14,09,25,19.10
2007,08,14,09,26,19.10
2007,08,14,09,27,19.10
2007,08,14,09,28,19.10
2007,08,14,09,29,19.20
2007,08,14,09,30,19.10
2007,08,14,09,31,19.10
2007,08,14,09,32,19.10
2007,08,14,09,33,19.10
2007,08,14,09,34,19.10
2007,08,14,09,35,19.10
2007,08,14,09,36,19.10
2007,08,14,09,37,19.10
2007,08,14,09,38,19.20
2007,08,14,09,39,19.20
2007,08,14,09,40,19.20
2007,08,14,09,41,19.30
2007,08,14,09,42,19.30
2007,08,14,09,43,19.30
2007,08,14,09,44,19.30
2007,08,14,09,45,19.30
2007,08,14,09,46,19.40
2007,08,14,09,47,19.40
2007,08,14,09,48,19.30
2007,08,14,09,49,19.30
2007,08,14,09,50,19.30
2007,08,14,09,51,19.40
2007,08,14,09,52,19.40
2007,08,14,09,53,19.40
2007,08,14,09,54,19.40
2007,08,14,09,55,19.40
2007,08,14,09,56,19.40
2007,08,14,09,57,19.40
2007,08,14,09,58,19.40
2007,08,14,09,59,19.50
2007,08,14,10,00,19.50
2007,08,14,10,01,19.50
2007,08,14,10,02,19.50
2007,08,14,10,03,19.60
2007,08,14,10,04,19.60
2007,08,14,10,05,19.60
2007,08,14,10,06,19.60
2007,08,14,10,07,19.60
2007,08,14,10,08,19.70
2007,08,14,10,09,19.70
2007,08,14,10,10,19.70
2007,08,14,10,11,19.70
2007,08,14,10,12,19.70
2007,08,14,10,13,19.80
2007,08,14,10,14,19.80
2007,08,14,10,15,19.80
2007,08,14,10,16,19.90
2007,08,14,10,17,19.90
2007,08,14,10,18,19.90
2007,08,14,10,19,20.00
2007,08,14,10,20,20.10
2007,08,14,10,21,20.10
2007,08,14,10,22,20.10
2007,08,14,10,23,20.10
2007,08,14,10,24,20.10
2007,08,14,10,25,20.20
2007,08,14,10,26,20.20
2007,08,14,10,27,20.30
2007,08,14,10,28,20.40
2007,08,14,10,29,20.40
2007,08,14,10,30,20.40
2007,08,14,10,31,20.40
2007,08,14,10,32,20.40
2007,08,14,10,33,20.40
2007,08,14,10,34,20.40
2007,08,14,10,35,20.50
2007,08,14,10,36,20.60
2007,08,14,10,37,20.60
2007,08,14,10,38,20.60
2007,08,14,10,39,20.50
2007,08,14,10,40,20.50
2007,08,14,10,41,20.50
2007,08,14,10,42,20.50
2007,08,14,10,43,20.50
2007,08,14,10,44,20.50
2007,08,14,10,45,20.50
2007,08,14,10,46,20.50
2007,08,14,10,47,20.40
2007,08,14,10,48,20.40
2007,08,14,10,49,20.30
2007,08,14,10,50,20.30
2007,08,14,10,51,20.30
2007,08,14,10,52,20.30
2007,08,14,10,53,20.30
2007,08,14,10,54,20.20
2007,08,14,10,55,20.30
2007,08,14,10,56,20.30
2007,08,14,10,57,20.30
2007,08,14,10,58,20.40
2007,08,14,10,59,20.40
2007,08,14,11,00,20.50
2007,08,14,11,01,20.60
2007,08,14,11,02,20.60
2007,08,14,11,03,20.70
2007,08,14,11,04,20.70
2007,08,14,11,05,20.70
2007,08,14,11,06,20.70
2007,08,14,11,07,20.80
2007,08,14,11,08,20.80
2007,08,14,11,09,20.80
2007,08,14,11,10,20.80
2007,08,14,11,11,20.70
2007,08,14,11,12,20.70
2007,08,14,11,13,20.80
2007,08,14,11,14,20.80
2007,08,14,11,15,20.80
2007,08,14,11,16,20.80
2007,08,14,11,17,20.80
2007,08,14,11,18,20.80
2007,08,14,11,19,20.70
2007,08,14,11,20,20.70
2007,08,14,11,21,20.70
2007,08,14,11,22,20.70
2007,08,14,11,23,20.80
2007,08,14,11,24,20.90
2007,08,14,11,25,21.00
2007,08,14,11,26,21.00
2007,08,14,11,27,21.10
2007,08,14,11,28,21.10
2007,08,14,11,29,21.10
2007,08,14,11,30,21.20
2007,08,14,11,31,21.10
2007,08,14,11,32,21.10
2007,08,14,11,33,21.10
2007,08,14,11,34,21.20
2007,08,14,11,35,21.10
2007,08,14,11,36,21.10
2007,08,14,11,37,21.10
2007,08,14,11,38,21.10
2007,08,14,11,39,21.10
2007,08,14,11,40,21.10
2007,08,14,11,41,21.00
2007,08,14,11,42,21.00
2007,08,14,11,43,21.10
2007,08,14,11,44,21.20
2007,08,14,11,45,21.30
2007,08,14,11,46,21.30
2007,08,14,11,47,21.30
2007,08,14,11,48,21.30
2007,08,14,11,49,21.30
2007,08,14,11,50,21.30
2007,08,14,11,51,21.30
2007,08,14,11,52,21.30
2007,08,14,11,53,21.20
2007,08,14,11,54,21.20
2007,08,14,11,55,21.30
2007,08,14,11,56,21.40
2007,08,14,11,57,21.40
2007,08,14,11,58,21.40
2007,08,14,11,59,21.40
2007,08,14,12,00,21.30
2007,08,14,12,01,21.30
2007,08,14,12,02,21.30
2007,08,14,12,03,21.30
2007,08,14,12,04,21.30
2007,08,14,12,05,21.40
2007,08,14,12,06,21.60
2007,08,14,12,07,21.60
2007,08,14,12,08,21.60
2007,08,14,12,09,21.60
2007,08,14,12,10,21.60
2007,08,14,12,11,21.70
2007,08,14,12,12,21.70
2007,08,14,12,13,21.70
2007,08,14,12,14,21.80
2007,08,14,12,15,21.90
2007,08,14,12,16,22.00
2007,08,14,12,17,22.00
2007,08,14,12,18,22.00
2007,08,14,12,19,22.00
2007,08,14,12,20,22.00
2007,08,14,12,21,21.90
2007,08,14,12,22,22.00
2007,08,14,12,23,22.00
2007,08,14,12,24,22.00
2007,08,14,12,25,22.00
2007,08,14,12,26,22.00
2007,08,14,12,27,22.00
2007,08,14,12,28,22.00
2007,08,14,12,29,22.10
2007,08,14,12,30,22.10
2007,08,14,12,31,22.00
2007,08,14,12,32,22.00
2007,08,14,12,33,22.10
2007,08,14,12,34,22.10
2007,08,14,12,35,22.10
2007,08,14,12,36,22.10
2007,08,14,12,37,22.10
2007,08,14,12,38,22.20
2007,08,14,12,39,22.30
2007,08,14,12,40,22.20
2007,08,14,12,41,22.10
2007,08,14,12,42,22.10
2007,08,14,12,43,22.00
2007,08,14,12,44,22.00
2007,08,14,12,45,22.00
2007,08,14,12,46,22.00
2007,08,14,12,47,22.10
2007,08,14,12,48,22.10
2007,08,14,12,49,22.20
2007,08,14,12,50,22.20
2007,08,14,12,51,22.10
2007,08,14,12,52,22.10
2007,08,14,12,53,22.00
2007,08,14,12,54,22.10
2007,08,14,12,55,22.20
2007,08,14,12,56,22.20
2007,08,14,12,57,22.20
2007,08,14,12,58,22.20
2007,08,14,12,59,22.20
2007,08,14,13,00,22.20
2007,08,14,13,01,22.30
2007,08,14,13,02,22.40
2007,08,14,13,03,22.40
2007,08,14,13,04,22.50
2007,08,14,13,05,22.40
2007,08,14,13,06,22.40
2007,08,14,13,07,22.40
2007,08,14,13,08,22.50
2007,08,14,13,09,22.50
2007,08,14,13,10,22.50
2007,08,14,13,11,22.60
2007,08,14,13,12,22.70
2007,08,14,13,13,22.80
2007,08,14,13,14,22.90
2007,08,14,13,15,22.80
2007,08,14,13,16,22.90
2007,08,14,13,17,22.90
2007,08,14,13,18,22.90
2007,08,14,13,19,22.90
2007,08,14,13,20,23.10
2007,08,14,13,21,23.10
2007,08,14,13,22,23.10
2007,08,14,13,23,23.00
2007,08,14,13,24,22.90
2007,08,14,13,25,22.90
2007,08,14,13,26,22.90
2007,08,14,13,27,22.80
2007,08,14,13,28,22.80
2007,08,14,13,29,22.90
2007,08,14,13,30,22.90
2007,08,14,13,31,22.90
2007,08,14,13,32,22.80
2007,08,14,13,33,22.80
2007,08,14,13,34,22.80
2007,08,14,13,35,22.80
2007,08,14,13,36,22.80
2007,08,14,13,37,22.80
2007,08,14,13,38,22.70
2007,08,14,13,39,22.70
2007,08,14,13,40,22.70
2007,08,14,13,41,22.80
2007,08,14,13,42,22.80
2007,08,14,13,43,22.80
2007,08,14,13,44,22.80
2007,08,14,13,45,22.80
2007,08,14,13,46,22.70
2007,08,14,13,47,22.70
2007,08,14,13,48,22.70
2007,08,14,13,49,22.70
2007,08,14,13,50,22.70
2007,08,14,13,51,22.80
2007,08,14,13,52,22.80
2007,08,14,13,53,22.70
2007,08,14,13,54,22.70
2007,08,14,13,55,22.70
2007,08,14,13,56,22.70
2007,08,14,13,57,22.80
2007,08,14,13,58,22.90
2007,08,14,13,59,23.00
2007,08,14,14,00,23.10
2007,08,14,14,01,23.10
2007,08,14,14,02,23.10
2007,08,14,14,03,23.20
2007,08,14,14,04,23.20
2007,08,14,14,05,23.20
2007,08,14,14,06,23.20
2007,08,14,14,07,23.20
2007,08,14,14,08,23.20
2007,08,14,14,09,23.20
2007,08,14,14,10,23.30
2007,08,14,14,11,23.30
2007,08,14,14,12,23.30
2007,08,14,14,13,23.30
2007,08,14,14,14,23.30
2007,08,14,14,15,23.30
2007,08,14,14,16,23.30
2007,08,14,14,17,23.30
2007,08,14,14,18,23.30
2007,08,14,14,19,23.20
2007,08,14,14,20,23.20
2007,08,14,14,21,23.20
2007,08,14,14,22,23.20
2007,08,14,14,23,23.20
2007,08,14,14,24,23.30
2007,08,14,14,25,23.30
2007,08,14,14,26,23.40
2007,08,14,14,27,23.40
2007,08,14,14,28,23.40
2007,08,14,14,29,23.30
2007,08,14,14,30,23.40
2007,08,14,14,31,23.40
2007,08,14,14,32,23.40
2007,08,14,14,33,23.50
2007,08,14,14,34,23.60
2007,08,14,14,35,23.60
2007,08,14,14,36,23.60
2007,08,14,14,37,23.60
2007,08,14,14,38,23.60
2007,08,14,14,39,23.60
2007,08,14,14,40,23.70
2007,08,14,14,41,23.60
2007,08,14,14,42,23.60
2007,08,14,14,43,23.40
2007,08,14,14,44,23.40
2007,08,14,14,45,23.40
2007,08,14,14,46,23.50
2007,08,14,14,47,23.60
2007,08,14,14,48,23.60
2007,08,14,14,49,23.60
2007,08,14,14,50,23.60
2007,08,14,14,51,23.50
2007,08,14,14,52,23.40
2007,08,14,14,53,23.30
2007,08,14,14,54,23.30
2007,08,14,14,55,23.30
2007,08,14,14,56,23.30
2007,08,14,14,57,23.30
2007,08,14,14,58,23.40
2007,08,14,14,59,23.40
2007,08,14,15,00,23.40
2007,08,14,15,01,23.40
2007,08,14,15,02,23.50
2007,08,14,15,03,23.70
2007,08,14,15,04,23.70
2007,08,14,15,05,23.70
2007,08,14,15,06,23.70
2007,08,14,15,07,23.70
2007,08,14,15,08,23.70
2007,08,14,15,09,23.70
2007,08,14,15,10,23.70
2007,08,14,15,11,23.70
2007,08,14,15,12,23.60
2007,08,14,15,13,23.60
2007,08,14,15,14,23.60
2007,08,14,15,15,23.70
2007,08,14,15,16,23.80
2007,08,14,15,17,23.90
2007,08,14,15,18,23.90
2007,08,14,15,19,23.80
2007,08,14,15,20,23.80
2007,08,14,15,21,23.80
2007,08,14,15,22,23.70
2007,08,14,15,23,23.70
2007,08,14,15,24,23.70
2007,08,14,15,25,23.60
2007,08,14,15,26,23.40
2007,08,14,15,27,23.30
2007,08,14,15,28,23.30
2007,08,14,15,29,23.30
2007,08,14,15,30,23.30
2007,08,14,15,31,23.30
2007,08,14,15,32,23.30
2007,08,14,15,33,23.40
2007,08,14,15,34,23.40
2007,08,14,15,35,23.60
2007,08,14,15,36,23.70
2007,08,14,15,37,23.80
2007,08,14,15,38,23.90
2007,08,14,15,39,23.90
2007,08,14,15,40,23.90
2007,08,14,15,41,23.80
2007,08,14,15,42,23.80
2007,08,14,15,43,23.80
2007,08,14,15,44,23.80
2007,08,14,15,45,24.00
2007,08,14,15,46,24.10
2007,08,14,15,47,24.20
2007,08,14,15,48,24.20
2007,08,14,15,49,24.30
2007,08,14,15,50,24.30
2007,08,14,15,51,24.40
2007,08,14,15,52,24.50
2007,08,14,15,53,24.50
2007,08,14,15,54,24.50
2007,08,14,15,55,24.50
2007,08,14,15,56,24.50
2007,08,14,15,57,24.60
2007,08,14,15,58,24.70
2007,08,14,15,59,24.70
2007,08,14,16,00,24.70
2007,08,14,16,01,24.60
2007,08,14,16,02,24.50
2007,08,14,16,03,24.40
2007,08,14,16,04,24.40
2007,08,14,16,05,24.40
2007,08,14,16,06,24.40
2007,08,14,16,07,24.40
2007,08,14,16,08,24.40
2007,08,14,16,09,24.50
2007,08,14,16,10,24.50
2007,08,14,16,11,24.60
2007,08,14,16,12,24.70
2007,08,14,16,13,24.80
2007,08,14,16,14,24.90
2007,08,14,16,15,24.90
2007,08,14,16,16,25.00
2007,08,14,16,17,25.00
2007,08,14,16,18,25.00
2007,08,14,16,19,24.90
2007,08,14,16,20,24.80
2007,08,14,16,21,24.80
2007,08,14,16,22,24.80
2007,08,14,16,23,24.90
2007,08,14,16,24,24.90
2007,08,14,16,25,25.00
2007,08,14,16,26,24.90
2007,08,14,16,27,24.90
2007,08,14,16,28,24.80
2007,08,14,16,29,24.80
2007,08,14,16,30,24.70
2007,08,14,16,31,24.70
2007,08,14,16,32,24.70
2007,08,14,16,33,24.80
2007,08,14,16,34,24.80
2007,08,14,16,35,24.90
2007,08,14,16,36,24.90
2007,08,14,16,37,24.90
2007,08,14,16,38,25.00
2007,08,14,16,39,25.00
2007,08,14,16,40,25.00
2007,08,14,16,41,25.10
2007,08,14,16,42,25.00
2007,08,14,16,43,25.10
2007,08,14,16,44,25.10
2007,08,14,16,45,25.10
2007,08,14,16,46,25.20
2007,08,14,16,47,25.20
2007,08,14,16,48,25.20
2007,08,14,16,49,25.10
2007,08,14,16,50,25.10
2007,08,14,16,51,25.00
2007,08,14,16,52,25.10
2007,08,14,16,53,25.10
2007,08,14,16,54,25.00
2007,08,14,16,55,24.90
2007,08,14,16,56,24.90
2007,08,14,16,57,24.90
2007,08,14,16,58,24.80
2007,08,14,16,59,24.70
2007,08,14,17,00,24.70
2007,08,14,17,01,24.70
2007,08,14,17,02,24.70
2007,08,14,17,03,24.70
2007,08,14,17,04,24.70
2007,08,14,17,05,24.80
2007,08,14,17,06,24.80
2007,08,14,17,07,24.90
2007,08,14,17,08,24.90
2007,08,14,17,09,24.90
2007,08,14,17,10,24.90
2007,08,14,17,11,25.00
2007,08,14,17,12,25.00
2007,08,14,17,13,25.00
2007,08,14,17,14,25.00
2007,08,14,17,15,25.00
2007,08,14,17,16,25.10
2007,08,14,17,17,25.00
2007,08,14,17,18,25.00
2007,08,14,17,19,24.90